XJS B (43519 NORAD) Tracking and Keplerian Element Data

This shows tracking and keplerian element data for the satellite.

Feedback or suggestion? Click here.




ElementValue
Catalog43519
NameXJS B
Epoch Orbit276
Epoch Day196.17873692
Epoch Year2018
RAAN188.4976
Inclination34.9995
Eccentricity0.0005234
Argument of Perigee75.8726
Mean Anonmoly24.2083
Mean Motion15.27910939
Decay Rate-3.9E-07
L11 43519U 18054B 18196.17873692 -.00000039 00000-0 00000+0 0 9990
L22 43519 34.9995 188.4976 0005234 75.8726 24.2083 15.27910939 2765

Live tracking and technical data element details for XJS B (NORAD 43519). XJS B can be tracked NOW for your location showing map with azimuth and elevation plus other details from your city location.

Track the satellite on the map from your city or location and see movement details for azimuth, elevation, latitude, longitude, range, height, and movement on the map or in text.







IsCatalogInMostPopularTable: catalog: 43519, numindb: 4
Update: records affected: 1



GetName: 43519 XJS B

Hit Count: updated at: Sun, 15 Jul 2018 22:55:21 GMT